Theta_e
359 355 350 343 319 312 310 314 322 320 323 331 332 329 326 328 321 314 340 347 351 351 354 358 363 363 363 364 366 365 365 365 366 367 368 368 366 365 365 364 364 364 363 363 363 361 360 360 359
355 350 345 332 307 303 305 318 318 322 328 333 334 332 329 326 334 337 341 353 355 356 356 359 364 365 365 366 367 367 366 366 368 368 369 368 366 366 365 365 364 363 362 362 361 360 358 358 358
350 348 332 323 306 304 307 318 321 326 333 332 330 334 332 329 338 340 347 354 355 355 357 360 366 366 365 365 368 367 367 367 367 367 367 367 366 364 364 363 362 362 362 360 360 358 357 357 357
341 333 328 308 304 311 319 320 323 326 329 335 334 329 337 344 341 345 351 355 354 355 358 364 365 365 366 366 367 367 367 367 368 368 367 365 364 364 363 363 362 362 361 360 358 358 357 357 357
337 324 309 304 306 320 323 325 326 324 330 332 334 329 332 344 347 349 351 353 352 354 359 360 367 366 367 366 365 365 365 366 368 367 364 364 363 363 363 363 362 361 360 359 359 359 358 358 357
318 318 307 305 309 321 324 327 327 331 333 332 331 330 333 347 345 349 352 351 356 356 358 360 365 366 366 366 364 365 364 363 364 364 365 365 365 364 363 362 361 360 358 358 358 359 359 359 359
319 314 310 308 310 318 323 331 331 330 330 330 335 328 337 343 348 351 350 352 355 358 358 357 358 362 366 368 366 364 364 363 363 365 364 365 364 363 363 362 361 360 359 359 360 361 361 360 360
323 316 310 309 311 314 325 327 334 331 330 339 338 327 329 342 350 351 352 353 356 358 359 358 357 358 359 361 366 365 364 363 363 365 364 364 363 362 362 361 362 362 362 362 361 360 360 361 360
328 310 307 311 310 313 326 325 336 338 334 334 337 336 339 347 350 347 348 350 352 356 356 358 358 358 359 359 361 365 364 365 364 364 364 365 356 354 349 352 358 357 360 361 360 359 358 359 358
319 309 312 319 318 316 322 327 329 331 330 331 333 340 343 346 346 344 344 345 347 350 352 355 357 357 357 363 359 358 357 357 356 357 357 355 352 351 352 354 357 352 358 362 359 360 360 357 349
319 314 319 320 322 319 321 324 328 329 325 330 331 336 340 342 344 343 345 346 346 350 352 354 355 357 356 358 355 356 356 354 355 355 353 353 351 351 349 347 348 348 353 352 354 354 352 350 348
310 320 321 321 327 322 322 325 327 328 328 335 339 341 341 341 342 343 344 345 346 349 350 352 355 355 355 355 355 354 355 352 353 353 353 351 348 346 343 347 348 349 348 348 348 348 347 348 349
310 317 322 323 324 324 322 322 325 326 333 337 341 342 341 342 343 345 347 347 349 348 351 351 354 354 355 353 354 353 353 353 352 353 353 352 349 345 347 349 349 349 348 347 346 345 346 345 346
317 320 321 322 321 322 321 325 327 330 335 334 339 339 341 341 342 344 344 344 346 349 348 351 353 353 352 349 352 351 352 352 353 352 353 353 350 347 347 347 345 345 347 346 347 345 344 344 344
322 317 321 321 320 318 325 318 323 331 333 332 336 337 339 340 342 341 342 344 347 347 348 351 352 352 350 349 350 347 351 350 351 351 351 351 351 348 347 344 342 344 346 345 345 342 340 340 341
315 312 311 317 322 324 322 313 326 331 329 328 331 334 336 338 338 339 342 344 345 346 348 351 353 352 350 350 351 351 352 351 350 350 349 349 350 350 348 342 342 345 343 343 342 339 338 338 338
305 307 306 313 320 321 319 314 325 330 329 327 329 331 332 332 335 338 342 342 341 346 348 348 349 350 349 350 351 351 351 350 350 350 348 348 349 350 347 342 343 343 342 341 339 339 337 336 336
306 303 310 311 319 318 317 316 325 328 327 327 329 330 331 332 332 337 342 342 341 346 348 348 349 349 349 350 350 351 350 350 350 348 348 348 348 349 346 345 345 343 341 339 338 337 336 336 336
306 305 310 314 315 317 316 317 321 326 326 325 327 328 329 331 334 337 341 342 341 342 344 343 344 347 348 347 345 345 346 346 347 348 350 350 348 349 346 344 342 341 338 337 337 336 334 333 334
304 303 306 310 317 316 315 316 321 323 324 325 326 326 328 330 331 334 338 339 339 340 342 341 343 345 349 347 345 346 344 345 345 347 349 349 348 347 346 343 341 339 337 334 333 332 330 331 334
301 301 303 307 312 318 317 312 317 323 325 326 328 329 330 330 330 332 335 336 340 339 340 342 342 346 348 348 346 346 344 342 340 342 343 342 344 344 342 340 336 334 333 332 331 332 330 327 330
297 306 308 310 308 304 315 302 310 318 321 324 327 328 330 332 332 333 335 337 339 340 342 343 344 346 348 348 346 343 340 334 331 336 338 336 333 335 336 335 335 334 333 332 332 335 331 329 325
304 307 305 308 306 305 306 302 307 315 314 320 325 327 331 333 333 333 335 338 340 342 344 345 346 347 348 347 347 343 333 329 332 332 332 329 330 333 334 336 336 333 331 330 332 330 330 329 327
309 303 299 299 299 296 305 302 300 310 316 320 323 325 331 332 335 335 337 338 339 343 346 347 346 347 348 346 344 338 328 328 330 328 327 324 326 328 333 337 332 331 330 330 330 330 329 329 328
302 295 289 291 293 294 300 301 303 312 320 322 322 323 329 332 335 336 336 337 338 341 345 347 347 346 346 342 336 331 326 327 329 327 325 326 328 329 331 330 330 327 327 329 329 329 326 327 326
298 296 290 285 287 293 296 298 306 314 320 323 324 324 328 329 335 336 338 338 338 342 344 347 347 345 341 336 329 324 325 324 324 325 326 325 327 329 329 329 329 328 329 330 329 328 328 327 327
297 293 298 291 291 290 293 298 306 312 313 319 319 319 325 328 332 336 338 338 339 342 344 346 347 346 339 332 328 324 325 325 325 328 329 324 325 330 329 329 329 329 330 330 328 328 327 327 327
302 301 293 291 287 286 291 294 297 305 309 315 316 317 323 327 330 334 337 337 340 343 345 346 348 346 340 332 329 328 327 328 330 330 327 326 328 328 328 328 329 328 330 329 326 326 327 325 325
298 295 293 294 291 288 288 293 302 306 311 313 316 319 323 326 329 331 334 336 337 342 344 345 346 345 340 334 331 328 328 330 330 329 328 328 328 327 328 327 328 329 328 327 327 327 327 325 324
300 298 297 294 290 290 291 294 306 309 314 316 317 318 319 324 328 331 332 334 334 337 341 344 345 343 340 335 332 330 330 330 329 328 328 327 327 329 331 330 329 328 328 328 328 327 328 326 324
Wind_Speed
7 4 2 1 3 6 1 3 2 4 4 1 4 9 10 9 3 4 2 6 7 5 6 12 17 18 19 18 18 18 18 17 15 15 15 15 15 14 14 11 11 10 9 9 8 6 5 6 6
7 4 2 1 5 4 3 1 3 3 7 13 10 8 10 6 6 10 6 8 9 6 5 9 16 17 18 16 17 17 18 17 15 14 14 15 14 13 12 11 10 9 8 8 6 4 4 3 4
4 2 2 2 3 4 4 3 6 10 10 4 6 9 4 4 10 10 9 11 8 6 5 10 15 16 18 17 15 16 16 16 15 15 14 13 13 12 11 11 9 8 7 5 5 3 2 2 2
2 3 2 4 1 3 4 6 10 10 3 8 14 11 5 7 8 7 12 12 10 6 6 12 16 16 17 17 15 16 15 15 14 13 13 13 13 11 9 9 8 6 5 4 3 2 1 1 0
3 2 4 5 4 3 5 11 11 7 5 10 5 7 6 3 12 15 12 11 10 6 7 9 14 15 15 15 15 14 13 13 12 12 12 12 11 10 8 7 6 5 4 4 3 3 3 3 2
1 2 6 2 4 4 5 9 12 6 8 11 10 8 4 12 14 12 11 10 9 7 5 7 13 14 14 14 14 12 12 12 11 11 11 10 10 9 7 6 6 5 4 4 4 5 4 4 3
4 4 5 4 6 5 6 8 5 11 10 8 10 7 7 10 12 11 10 9 8 6 6 5 6 11 15 14 14 14 13 13 12 11 10 9 9 8 7 7 5 5 5 5 6 5 5 5 5
1 5 4 1 8 6 6 3 7 9 8 13 11 7 11 14 14 11 10 8 7 5 5 5 5 6 6 7 16 16 14 13 12 10 9 8 8 7 7 3 4 7 8 6 6 6 5 5 5
2 6 3 5 6 5 10 6 7 5 11 4 5 8 12 18 15 11 9 7 6 6 6 7 6 5 5 4 6 11 13 12 11 10 10 7 2 3 2 5 6 6 8 7 7 6 5 5 3
5 5 7 7 7 9 15 14 15 7 12 3 11 15 17 19 15 14 12 11 10 9 5 5 6 6 5 6 5 5 4 4 3 4 4 3 4 3 4 3 7 6 8 8 4 5 5 5 3
6 8 6 7 7 16 14 10 3 17 7 11 24 21 21 17 15 15 14 14 15 12 8 7 6 6 6 5 4 3 3 2 3 4 4 4 2 2 0 1 1 1 5 2 4 3 3 4 3
4 13 7 6 7 8 15 8 7 7 4 17 19 22 20 18 16 14 14 11 9 10 10 8 7 7 7 4 4 4 3 3 3 4 5 4 2 3 3 2 2 1 0 0 2 2 4 5 5
8 5 10 10 9 10 7 6 6 5 12 16 18 20 20 18 17 15 16 14 12 11 11 10 9 9 8 4 4 4 4 4 4 4 5 4 4 4 3 3 2 1 1 1 1 1 2 4 4
3 7 9 8 8 5 12 6 6 7 15 18 20 20 19 18 18 14 12 12 13 12 12 11 11 9 6 6 6 4 4 4 4 4 5 6 4 4 4 3 3 2 1 2 1 2 2 3 3
12 8 9 4 4 6 13 4 6 16 18 18 19 18 18 18 16 16 16 14 15 12 12 13 12 8 8 7 6 4 5 4 5 5 6 6 5 5 5 3 2 3 2 3 2 2 2 3 3
8 5 10 4 5 8 7 4 12 16 19 18 18 16 16 17 18 15 15 14 12 11 11 11 10 9 7 6 5 4 4 4 4 4 4 4 5 6 5 3 3 3 2 2 2 2 3 3 3
6 12 3 5 9 5 2 5 15 16 16 16 15 16 15 13 13 12 15 14 12 13 12 11 9 9 8 6 5 5 6 4 3 2 2 4 5 6 4 3 3 3 1 2 2 2 1 3 4
12 7 9 14 16 7 6 6 18 18 17 18 16 14 15 13 15 16 15 13 11 11 11 11 8 7 7 5 4 2 2 2 2 3 3 4 2 3 4 3 3 3 2 1 1 2 1 2 3
10 6 15 10 7 6 6 10 20 19 17 16 16 15 14 15 13 14 14 13 10 8 9 7 8 8 5 3 3 1 3 2 3 3 4 5 4 5 4 3 2 3 2 2 2 2 2 2 1
7 6 8 3 8 6 4 7 18 20 22 20 19 17 18 15 11 13 14 12 11 12 11 9 10 8 7 4 3 3 2 2 1 1 3 4 5 5 4 4 2 2 1 1 0 1 0 1 1
5 7 6 8 7 6 10 4 9 12 7 13 14 15 14 17 17 15 15 15 12 11 11 11 11 8 7 7 3 2 2 1 1 0 2 3 5 5 4 4 4 3 3 3 2 2 2 1 2
4 9 8 10 15 9 7 6 9 12 14 12 14 13 16 17 17 17 17 15 14 13 11 10 9 8 7 7 5 5 4 4 3 3 3 4 4 5 5 4 4 4 3 3 2 2 1 2 1
11 8 9 9 13 6 5 5 7 11 10 21 19 17 18 17 18 19 20 20 18 14 12 10 9 8 7 7 7 5 4 3 2 2 5 3 1 2 4 5 6 4 3 3 3 3 3 2 2
2 4 8 6 5 5 12 8 5 13 27 26 17 17 19 18 19 18 18 15 14 12 12 10 11 10 9 9 8 9 8 6 4 3 4 3 1 2 4 5 5 4 3 4 3 2 3 4 3
6 8 3 4 2 7 8 4 11 20 25 26 26 21 20 18 18 18 18 16 15 16 16 13 13 13 11 10 8 8 9 8 8 5 5 5 3 3 5 5 4 3 4 3 2 3 3 3 3
7 11 9 8 5 7 6 8 11 17 22 22 17 20 17 19 19 21 21 19 19 19 18 17 15 14 11 10 9 8 8 5 5 6 4 4 4 4 5 5 5 5 4 2 2 2 3 3 4
4 5 10 6 1 4 5 7 9 6 12 17 19 15 19 20 20 22 19 20 19 18 20 20 18 16 14 13 10 8 7 8 7 7 6 5 5 4 6 6 6 5 4 4 2 2 3 4 4
12 8 2 2 6 5 4 4 7 7 8 11 14 17 19 18 17 17 19 19 19 20 19 18 17 18 15 14 12 10 10 8 7 6 7 7 6 6 6 6 6 5 5 4 3 3 3 3 3
3 3 4 6 4 9 5 8 9 8 9 18 20 22 19 17 18 18 19 19 20 18 17 17 15 16 15 15 12 11 9 8 8 7 7 7 6 7 7 7 6 6 6 5 4 5 5 5 5
7 10 10 7 7 1 5 9 5 9 9 14 16 15 10 13 16 17 19 19 17 18 17 18 16 17 16 14 13 12 9 9 8 7 7 7 8 7 7 6 6 6 6 5 6 6 5 6 6
Wind_Direction
146 167 133 58 59 74 201 265 68 104 92 334 64 95 107 36 57 143 82 139 137 133 137 132 141 140 135 131 126 131 133 131 125 126 126 125 124 122 124 131 127 115 115 117 125 132 122 102 93
155 163 60 39 82 100 272 153 105 89 105 122 95 81 48 72 60 110 105 153 137 136 123 138 140 135 131 130 131 130 128 129 132 131 133 131 133 133 132 130 124 132 136 134 135 145 121 108 100
140 353 94 92 92 166 153 209 153 106 140 91 106 82 61 81 107 139 136 142 133 121 123 138 134 136 136 135 131 128 136 139 144 141 141 141 136 137 137 135 136 137 139 141 154 155 141 134 110
139 23 342 74 64 1 146 148 129 129 121 81 109 79 87 112 141 133 142 137 127 127 131 137 141 143 139 139 142 143 147 149 148 148 147 147 140 141 143 137 137 153 154 164 165 191 199 275 306
2 84 49 53 340 38 86 136 138 128 87 100 89 100 89 57 111 129 138 136 138 137 139 141 148 148 146 150 149 150 148 149 143 147 151 149 143 152 147 146 158 173 182 199 214 237 268 282 288
2 122 60 53 7 64 101 144 146 108 98 118 102 97 82 128 133 143 141 141 141 134 132 148 148 152 155 157 159 157 153 149 149 157 159 153 157 158 157 169 186 204 210 239 258 270 270 280 285
200 95 146 139 117 152 177 151 143 137 139 127 143 95 121 141 148 144 141 136 134 138 139 134 147 160 163 168 171 169 170 166 169 170 169 167 165 170 183 198 216 234 231 258 282 294 299 290 294
250 86 94 81 165 181 169 109 153 135 115 119 143 150 162 164 152 139 132 126 132 142 154 156 164 164 167 172 177 179 179 175 183 180 179 181 191 196 207 210 246 249 256 259 283 293 297 301 310
135 52 151 171 174 159 162 137 185 103 134 152 166 137 144 151 144 132 126 132 145 168 171 165 175 168 172 174 189 182 181 180 189 190 189 196 195 233 229 265 258 263 275 275 276 282 304 314 339
90 126 221 183 173 171 178 161 162 129 165 93 112 115 143 151 151 149 158 164 170 174 184 175 172 173 167 187 195 174 195 187 193 193 197 181 209 225 244 291 288 265 275 288 277 292 309 352 341
196 207 168 186 180 165 162 168 145 145 195 181 149 146 156 162 164 163 172 176 179 176 176 187 183 175 181 198 179 187 192 200 189 207 208 211 219 221 122 286 346 318 293 309 332 332 339 328 345
162 234 167 167 143 138 155 130 107 158 243 158 149 150 158 168 173 174 174 176 174 177 185 182 191 187 200 201 182 187 188 192 199 202 207 198 206 229 250 233 260 287 327 134 343 352 331 322 328
197 185 171 141 113 129 117 119 130 193 136 143 149 156 165 175 179 184 184 179 178 179 188 190 190 195 202 191 191 190 201 199 217 209 211 197 205 215 216 231 231 208 236 278 309 348 322 308 315
209 154 123 111 143 135 126 126 99 160 144 149 158 165 173 179 183 186 182 183 178 183 187 190 198 199 180 196 192 204 199 223 197 214 218 204 206 216 210 225 239 270 231 294 258 259 292 306 307
137 93 78 78 175 121 120 69 153 151 157 153 164 172 177 187 181 185 186 185 182 185 180 188 197 191 185 196 201 195 208 199 209 215 218 210 203 218 207 227 262 248 244 259 276 293 308 310 307
91 36 131 221 194 181 87 185 158 163 164 168 169 178 184 192 187 186 183 188 189 177 177 184 192 189 189 188 190 189 195 197 197 207 200 199 212 206 204 208 230 242 242 255 256 276 293 285 289
43 168 191 169 214 139 111 138 175 170 173 176 182 183 189 190 198 189 187 182 181 185 182 181 185 180 182 190 198 200 195 206 210 202 214 217 231 232 199 189 233 231 214 233 244 274 238 309 314
183 179 197 172 201 184 206 166 163 176 173 183 191 198 200 193 195 190 190 185 178 183 182 184 184 180 179 182 185 211 205 223 230 231 210 213 197 128 158 181 195 179 157 262 258 277 299 260 280
139 177 202 208 163 121 192 152 174 179 185 190 193 198 205 209 196 189 188 187 175 181 179 179 175 196 166 161 154 184 216 207 224 221 225 201 204 168 165 173 154 145 169 212 237 242 247 296 346
139 179 200 326 159 95 170 175 179 184 194 192 190 196 199 201 180 182 184 186 182 180 189 183 195 190 191 166 164 158 168 218 205 146 196 191 166 163 160 166 160 156 134 54 194 204 180 270 311
170 174 185 182 156 43 113 5 207 216 219 210 205 206 201 188 184 184 181 185 186 185 184 189 193 190 189 181 133 104 77 47 38 159 146 184 176 161 146 155 156 160 145 183 191 192 161 149 320
198 203 208 151 162 185 173 214 229 211 219 221 215 202 201 192 190 184 182 184 185 192 189 191 191 184 193 175 165 165 172 189 224 188 168 182 182 168 161 174 170 166 172 176 175 164 159 134 164
228 151 195 177 183 118 207 102 252 159 222 229 217 210 202 194 190 188 188 185 187 181 185 190 183 187 185 181 178 173 174 194 176 134 150 172 190 183 194 169 160 172 184 191 181 182 183 181 151
205 98 39 50 121 194 199 160 238 181 214 224 218 212 199 193 194 192 190 186 186 185 182 181 180 195 189 183 186 178 182 168 150 161 174 193 207 283 197 163 171 180 191 192 202 202 193 188 178
97 79 333 342 1 214 194 139 229 210 215 215 206 205 199 190 190 190 187 185 185 187 190 187 186 198 192 187 183 184 175 167 172 178 179 173 168 190 169 165 179 186 206 204 210 211 222 209 186
178 159 161 187 203 227 128 203 242 210 221 215 212 207 192 192 193 193 190 187 191 192 193 189 189 197 187 184 186 178 167 170 180 181 185 183 186 179 173 185 185 219 211 226 236 225 227 214 224
189 156 196 137 348 98 217 277 328 298 213 203 202 188 200 196 192 194 190 192 194 197 199 194 193 193 185 186 181 180 172 174 175 192 171 178 190 186 189 189 198 219 229 215 230 255 244 221 222
192 166 91 352 164 234 251 242 221 223 206 203 189 195 202 196 193 192 193 193 197 201 202 197 197 196 186 183 184 179 181 176 185 174 183 177 184 189 181 192 206 215 230 237 235 269 268 236 245
140 181 77 125 143 170 221 258 213 226 192 186 195 201 197 188 190 192 196 198 200 201 197 196 194 190 187 185 177 175 176 171 176 177 183 189 181 187 192 198 207 219 229 241 240 250 260 237 248
181 208 179 196 247 200 166 260 232 222 200 187 199 193 190 189 188 193 196 199 198 202 197 197 193 191 191 185 178 180 170 171 178 193 195 185 194 191 200 196 206 220 231 241 237 252 249 233 241